Retour au catalogue

RASSVET-3 19

ActifPO
NORAD 100085·PAYLOAD·🇷🇺 Russia

Lancé Jul 19, 2026 depuis Plesetsk Cosmodrome

Loading…

Prochains Passages (prochaines 24 heures)

TLE

FraisSource: Space-Track

Époque: Sep 14, 2026, 12:56 UTC

1 A0085U 26165C   26257.53937763  .00009555  00000-0  16456-3 0  9997
2 A0085  82.3008 167.9513 0000215 195.9811 164.1433 15.50898047  8939

Suivez RASSVET-3 19 en temps réel avec AllMySat

Download on the App Store